Location: Marcé
(47.5801°N, 0.3280°W)
Time: 23:06:35
(UTC+01:00)

S-56A Canister/Altair - Pass Details

Date: 03 December 2021
Orbit: 633 x 2499 km, 38.9° (Epoch: 16 January)

Event Time Altitude Azimuth Distance (km) Brightness Sun altitude
Rises 02:43:37 0° 248° (WSW) 4,656 - -56.0°
Reaches altitude 10° 02:47:24 10° 241° (WSW) 3,355 - -55.5°
Maximum altitude 02:54:32 38° 177° (S) 1,479 - -54.5°
Drops below altitude 10° 02:59:37 10° 111° (ESE) 2,375 - -53.8°
Sets 03:01:52 0° 102° (ESE) 3,162 - -53.5°
